This is the latest recevied weather packets stored in our database for station/object W4OA. If no packets are shown the sender has not sent any weather packets the latest 10 day(s).
| Time | Temp. | Humidity | Pressure | Rain* | Wind** | Luminosity | Snow |
|---|---|---|---|---|---|---|---|
| 1777779898 | 9.44° C | 85% | 1011 hPa | 0 mm | - | 0 W/m² | - |
| 1777779598 | 9.44° C | 84% | 1011 hPa | 0 mm | - | 0 W/m² | - |
| 1777779298 | 9.44° C | 83% | 1011 hPa | 0 mm | - | 0 W/m² | - |
| 1777778998 | 10° C | 84% | 1011 hPa | 0 mm | - | 0 W/m² | - |
| 1777778698 | 10° C | 83% | 1011 hPa | 0 mm | - | 0 W/m² | - |
| 1777778398 | 10° C | 83% | 1011 hPa | 0 mm | - | 0 W/m² | - |
| 1777778098 | 10° C | 83% | 1011 hPa | 0 mm | - | 0 W/m² | - |
| 1777777798 | 10° C | 81% | 1011 hPa | 0 mm | - | 0 W/m² | - |
| 1777777498 | 10° C | 80% | 1011 hPa | 0 mm | - | 0 W/m² | - |
| 1777777198 | 10° C | 82% | 1011 hPa | 0 mm | - | 0 W/m² | - |
| 1777776898 | 10.56° C | 81% | 1011 hPa | 0 mm | - | 0 W/m² | - |
| 1777776598 | 10.56° C | 80% | 1011 hPa | 0 mm | - | 0 W/m² | - |
| 1777776298 | 10.56° C | 79% | 1010 hPa | 0 mm | - | 0 W/m² | - |
| 1777775998 | 10.56° C | 78% | 1010 hPa | 0 mm | - | 0 W/m² | - |
| 1777775699 | 11.11° C | 78% | 1010 hPa | 0 mm | - | 0 W/m² | - |
| 1777775401 | 11.11° C | 78% | 1010 hPa | 0 mm | - | 0 W/m² | - |
| 1777775098 | 11.11° C | 77% | 1010 hPa | 0 mm | - | 0 W/m² | - |
| 1777773599 | 12.22° C | 72% | 1010 hPa | 0 mm | - | 0 W/m² | - |
| 1777766098 | 17.78° C | 40% | 1008 hPa | 0 mm | - | 0 W/m² | - |
| 1777761298 | 19.44° C | 37% | 1007 hPa | 0 mm | - | 0 W/m² | - |
| 1777760998 | 19.44° C | 36% | 1007 hPa | 0 mm | - | 0 W/m² | - |
| 1777760698 | 20° C | 37% | 1007 hPa | 0 mm | - | 0 W/m² | - |
| 1777760398 | 20° C | 37% | 1007 hPa | 0 mm | - | 0 W/m² | - |
| 1777760098 | 20.56° C | 35% | 1007 hPa | 0 mm | - | 0 W/m² | - |
| 1777759799 | 20.56° C | 37% | 1007 hPa | 0 mm | - | 0 W/m² | - |
* Rain latest hour (hover to see other rain measurements)
** Current wind speed in m/s (hover to see current wind gust speed)